Phoenix, AZ

4:15 AM MST on December 17, 2017 (GMT -0700)
Phoenix Sky Harbor International

Weather History for KPHX - January, 2013

Change the Weather History Date:

Thursday, January 17, 2013

  Actual Average Record
Temperature  
Mean Temperature 56 °F 56 °F  
Max Temperature 73 °F 67 °F 83 °F (1976)
Min Temperature 38 °F 46 °F 26 °F (1964)
Degree Days  
Heating Degree Days 9 9  
Month to date heating degree days 274 159  
Since 1 July heating degree days 555 560  
Cooling Degree Days 0 0  
Month to date cooling degree days 0 0  
Year to date cooling degree days 0 0  
Growing Degree Days 4 (Base 50)    
Moisture  
Dew Point 18 °F    
Average Humidity 32    
Maximum Humidity 52    
Minimum Humidity 12    
Precipitation  
Precipitation 0.00 in 0.03 in 1.07 in (1933)
Month to date precipitation 0.01 0.52  
Year to date precipitation 0.01 0.52  
Snow  
Snow 0.00 in - - ()
Month to date snowfall 0.0  
Year to date snowfall 0.0  
Since 1 July snowfall 0.0  
Snow Depth 0.00 in    
Sea Level Pressure  
Sea Level Pressure 30.17 in    
Wind  
Wind Speed 7 mph (ENE)    
Max Wind Speed 18 mph    
Max Gust Speed 24 mph    
Visibility 10 miles    
Events      
T = Trace of Precipitation, MM = Missing Value Source: NWS Daily Summary

Daily Weather History Graph

Daily Weather History Graph

Search for Another Location

Airport or City:

Trip Planner

Search our weather history database for the weather conditions in past years. The results will help you decide how hot, cold, wet, or windy it might be!

Date:

Astronomy

Jan. 17, 2013 Rise Set
Actual Time 7:31 AM MST 5:45 PM MST
Civil Twilight 7:04 AM MST 6:12 PM MST
Nautical Twilight 6:34 AM MST 6:42 PM MST
Astronomical Twilight 6:04 AM MST 7:12 PM MST
Moon 11:02 AM MST No Moon Set
Length of Visible Light 11h 07m
Length of Day
10h 14m
Waxing Crescent, 38% of the Moon is Illuminated
Jan 17
Waxing Crescent
Jan 18
First Quarter
Jan 26
Full
Feb 3
Last Quarter
Feb 10
New

Hourly Weather History & Observations

Time (MST) Temp. Windchill Dew Point Humidity Pressure Visibility Wind Dir Wind Speed Gust Speed Precip Events Conditions
12:51 AM 46.9 °F - 18.0 °F 32% 30.20 in 10.0 mi Calm Calm - N/A   Clear
1:51 AM 45.0 °F - 18.0 °F 34% 30.21 in 10.0 mi Calm Calm - N/A   Clear
2:51 AM 43.0 °F - 19.0 °F 38% 30.20 in 10.0 mi Calm Calm - N/A   Clear
3:51 AM 44.1 °F 42.5 °F 19.9 °F 38% 30.18 in 10.0 mi NW 3.5 mph - N/A   Clear
4:51 AM 43.0 °F - 19.9 °F 40% 30.18 in 10.0 mi Calm Calm - N/A   Clear
5:51 AM 42.1 °F - 19.9 °F 41% 30.19 in 10.0 mi Calm Calm - N/A   Clear
6:51 AM 42.1 °F - 21.0 °F 43% 30.21 in 10.0 mi Calm Calm - N/A   Clear
7:51 AM 37.9 °F 35.5 °F 21.0 °F 51% 30.23 in 10.0 mi SW 3.5 mph - N/A   Clear
8:51 AM 48.9 °F - 21.0 °F 33% 30.23 in 10.0 mi NE 4.6 mph - N/A   Clear
9:51 AM 60.1 °F - 17.1 °F 19% 30.24 in 10.0 mi ENE 16.1 mph - N/A   Clear
10:51 AM 64.0 °F - 16.0 °F 16% 30.23 in 10.0 mi ENE 17.3 mph - N/A   Clear
11:51 AM 66.0 °F - 15.1 °F 14% 30.20 in 10.0 mi ENE 10.4 mph - N/A   Clear
12:51 PM 68.0 °F - 15.1 °F 13% 30.16 in 10.0 mi ENE 8.1 mph - N/A   Clear
1:51 PM 70.0 °F - 15.1 °F 12% 30.13 in 10.0 mi NE 11.5 mph - N/A   Clear
2:51 PM 71.1 °F - 16.0 °F 12% 30.11 in 10.0 mi NE 8.1 mph - N/A   Clear
3:51 PM 72.0 °F - 16.0 °F 12% 30.10 in 10.0 mi NE 9.2 mph 17.3 mph N/A   Clear
4:51 PM 72.0 °F - 16.0 °F 12% 30.11 in 10.0 mi ENE 8.1 mph - N/A   Clear
5:51 PM 69.8 °F - 17.6 °F 14% 30.13 in 10.0 mi ENE 8.1 mph - N/A   Clear
6:51 PM 64.0 °F - 18.0 °F 17% 30.13 in 10.0 mi East 4.6 mph - N/A   Clear
7:51 PM 59.0 °F - 19.9 °F 22% 30.15 in 10.0 mi ENE 5.8 mph - N/A   Clear
8:51 PM 60.1 °F - 19.9 °F 21% 30.15 in 10.0 mi ENE 6.9 mph - N/A   Clear
9:51 PM 57.0 °F - 19.9 °F 24% 30.15 in 10.0 mi ENE 8.1 mph - N/A   Clear
10:51 PM 61.0 °F - 19.0 °F 20% 30.14 in 10.0 mi ENE 11.5 mph - N/A   Clear
11:51 PM 60.1 °F - 19.0 °F 20% 30.14 in 10.0 mi ENE 12.7 mph - N/A   Clear